Theta_e
334 335 335 334 334 334 334 333 333 332 332 333 333 332 331 332 332 332 332 332 333 333 334 333 332 332 331 331 332 332 333 333 332 333 333 332 331 330 330 330 331 331 329 328 327 327 326 326 327 327 328 328 328 328 327 326 323 318 314 313 313 316 317 315 314 315 315 317 317 316 315 315 318 319 319 318 319 319 319 319 319 319 319 319 319
334 334 334 333 333 334 334 333 333 333 332 332 332 332 331 332 332 332 332 331 332 333 333 332 331 331 331 331 331 331 333 334 333 334 334 331 330 330 330 330 331 331 329 327 327 327 326 327 327 328 329 329 330 329 329 328 327 324 318 312 312 313 314 313 313 312 311 313 315 316 315 314 315 314 314 315 317 319 319 318 318 319 318 318 318
334 335 334 333 334 333 333 333 333 333 332 333 332 332 332 332 333 333 331 330 332 333 332 332 331 330 331 331 331 332 333 334 334 334 334 331 330 330 329 330 330 329 327 326 327 327 328 329 329 329 330 331 331 330 329 329 329 328 324 319 315 312 311 312 314 315 314 313 314 315 315 313 311 309 309 311 313 316 318 318 317 317 318 318 319
334 335 333 333 334 333 333 333 333 333 333 334 333 333 332 332 333 332 331 331 334 334 332 332 332 331 331 331 331 331 332 333 334 334 333 332 331 328 328 329 329 327 326 328 330 330 330 330 330 331 331 331 331 331 330 330 330 329 328 325 322 319 317 317 319 320 319 318 316 315 314 312 310 308 307 308 309 311 314 316 317 318 317 317 318
334 334 333 333 333 333 333 333 333 334 334 334 334 333 333 333 331 331 332 332 333 334 333 331 332 331 330 331 330 330 333 334 334 334 333 332 331 329 328 328 328 327 327 329 330 331 331 330 331 331 331 331 331 331 331 331 330 330 329 327 326 325 324 323 323 324 323 322 319 314 312 311 309 308 308 307 307 308 309 311 315 318 318 317 318
334 333 332 332 333 332 332 334 335 335 335 334 334 334 334 333 332 334 333 332 332 332 332 331 330 331 331 331 330 330 332 333 333 334 333 332 332 331 330 329 328 328 328 329 329 329 330 330 330 330 330 330 331 331 331 331 330 330 330 328 328 327 327 326 326 326 325 325 323 318 312 309 309 310 309 309 309 310 309 309 310 314 315 316 317
334 332 330 331 331 331 333 335 335 335 335 335 334 334 335 334 334 334 332 332 332 332 333 331 330 332 331 330 330 329 331 333 333 333 333 332 332 331 330 330 329 329 329 329 329 328 329 329 329 329 329 330 330 330 330 331 331 330 330 329 329 328 327 327 327 326 326 326 325 323 318 314 313 313 314 315 316 317 316 312 308 308 310 313 315
334 332 332 332 332 333 335 335 334 334 335 334 334 334 334 334 333 334 333 332 332 333 335 333 331 331 331 331 330 329 332 333 332 331 332 332 331 331 331 331 330 330 330 329 329 328 328 327 327 327 328 329 330 330 330 331 330 329 329 329 329 329 329 328 328 327 327 327 326 325 323 321 320 320 320 320 321 321 321 318 313 309 308 308 310
333 332 334 333 334 336 335 333 332 334 334 333 335 334 333 333 332 334 335 332 330 333 334 333 332 331 331 331 330 330 331 332 331 331 331 331 330 330 330 331 330 330 330 329 328 327 327 327 326 325 325 325 326 327 329 330 330 329 329 329 329 329 329 329 329 328 328 328 327 325 325 324 324 324 323 323 323 323 323 321 319 317 315 312 310
331 332 335 334 335 336 334 333 333 334 333 333 335 334 333 333 333 334 334 331 332 333 332 332 332 331 331 331 331 331 331 331 331 331 330 330 330 330 330 331 331 330 330 329 328 327 327 326 324 322 321 320 320 321 324 328 330 330 329 330 329 329 329 328 329 329 329 328 328 327 326 325 326 325 325 324 324 324 324 324 323 322 322 321 318
331 332 333 333 334 335 335 335 334 334 334 334 335 333 333 333 333 333 333 332 333 333 332 331 331 331 331 332 332 332 331 331 331 331 330 329 329 329 329 330 330 330 330 330 329 328 328 326 324 322 321 322 322 321 322 326 329 330 330 329 329 329 328 329 328 328 328 328 328 328 327 326 326 326 326 326 325 325 325 325 324 324 324 323 322
331 332 332 333 334 334 335 335 334 334 334 335 334 332 333 332 332 333 333 332 334 333 331 331 331 331 331 331 331 331 331 331 330 330 330 330 330 330 329 330 330 330 330 330 329 330 329 328 326 324 325 325 325 325 326 327 329 329 329 329 329 329 328 328 328 328 328 328 328 328 328 327 327 327 327 327 326 326 326 326 326 325 325 324 324
333 333 333 335 335 335 335 335 334 334 334 335 334 332 332 332 332 333 333 333 334 333 331 331 331 331 331 331 331 330 330 330 330 330 330 330 329 329 330 330 331 331 330 330 330 330 329 328 326 326 327 327 328 328 327 328 329 329 328 329 328 328 328 328 327 327 327 327 327 327 327 327 327 327 327 326 326 326 326 326 325 325 325 325 325
333 333 333 335 335 335 334 332 332 334 334 334 333 332 333 334 333 332 334 334 333 332 331 331 332 332 331 331 331 331 331 330 330 330 329 329 329 329 329 330 330 330 330 330 329 329 329 328 327 328 328 328 329 328 327 327 328 328 327 328 328 327 327 327 327 327 327 327 327 326 326 327 327 326 326 326 325 324 324 324 325 325 325 325 325
332 332 333 334 333 333 331 328 329 332 333 333 332 332 333 334 333 332 333 333 332 331 331 331 332 332 331 331 331 331 331 331 331 330 329 329 330 329 329 329 330 329 329 328 328 327 327 327 327 327 328 327 327 326 326 327 327 327 327 327 327 326 326 325 325 326 326 326 326 326 326 326 326 326 325 323 321 319 319 320 320 320 322 323 324
332 332 332 333 332 331 330 328 329 332 334 333 332 331 332 333 332 332 333 333 333 331 331 332 332 331 331 332 331 331 331 332 331 330 329 330 329 328 328 329 328 328 328 326 326 326 327 328 328 327 327 326 325 325 326 326 325 326 326 326 326 324 324 324 324 325 324 325 325 324 324 324 323 321 320 317 314 312 311 310 309 313 319 322 323
332 334 333 331 330 330 330 330 330 332 334 334 332 330 330 331 331 331 332 333 333 333 332 332 332 331 332 332 331 332 332 331 331 330 329 329 328 327 328 328 328 327 325 324 324 326 327 327 327 327 327 326 326 326 326 326 325 325 325 325 324 322 321 321 322 323 323 323 323 322 321 319 315 312 310 308 306 305 304 304 304 311 319 323 323
332 334 333 331 331 331 331 331 332 333 334 334 333 330 329 330 331 331 331 332 333 333 332 331 332 332 331 332 332 333 331 330 332 331 329 328 327 327 328 327 327 324 322 322 323 325 326 326 326 325 326 326 326 326 325 323 322 322 321 320 318 315 315 316 318 319 320 320 320 318 315 311 307 304 303 302 302 301 301 302 302 306 314 320 322
333 333 333 332 331 331 332 333 333 334 334 334 333 331 330 330 332 331 331 332 332 332 330 330 331 333 332 332 331 331 330 330 331 330 330 330 328 327 327 325 323 321 321 323 323 324 325 325 325 325 325 325 324 323 323 320 319 319 317 314 311 308 309 312 314 314 314 312 311 309 307 305 303 302 302 302 302 302 302 302 302 302 304 308 313
334 333 332 332 332 332 333 334 334 334 334 334 333 332 331 330 331 332 332 332 332 331 331 330 331 332 332 332 331 331 330 329 329 329 330 331 329 327 325 321 320 321 322 322 322 322 323 323 323 323 324 323 322 321 319 318 317 316 312 308 306 304 304 306 307 307 307 305 304 303 302 302 302 302 303 303 302 302 301 300 300 301 301 301 302
334 333 333 333 332 333 334 334 333 333 333 333 332 333 332 330 331 333 333 332 332 333 332 331 330 331 332 330 330 330 329 330 329 328 330 330 329 328 325 322 320 320 321 321 320 319 320 321 322 322 323 323 322 319 315 313 311 309 307 304 304 304 304 304 304 304 304 303 303 304 304 304 304 305 306 308 308 308 307 304 302 300 300 299 300
334 334 334 334 334 333 333 333 333 334 334 332 332 332 331 331 331 333 333 332 332 332 332 331 330 331 331 329 329 329 329 331 330 328 329 329 329 328 325 323 321 319 320 319 319 317 317 319 320 321 321 320 320 316 311 307 305 304 304 304 305 305 304 304 303 303 303 303 303 304 304 304 304 305 307 309 310 310 311 311 311 308 305 302 300
334 334 335 334 334 334 334 334 334 334 334 332 331 331 332 331 331 332 333 333 331 331 331 331 330 331 330 329 328 328 329 330 329 328 327 328 329 328 324 322 321 319 319 318 317 316 316 316 317 318 318 317 317 314 308 304 303 304 304 304 304 303 302 301 301 301 301 301 301 301 301 301 301 301 302 302 303 303 304 306 308 310 310 309 307
334 334 334 334 334 335 335 334 334 334 334 332 331 331 332 333 332 333 333 332 331 331 330 330 331 332 331 329 328 328 328 328 327 327 326 326 328 327 323 321 320 318 318 317 317 316 315 315 315 315 314 314 314 312 305 303 304 305 304 303 301 300 300 300 300 300 300 300 300 300 300 300 300 300 300 300 300 300 300 300 301 303 305 307 309
333 333 332 333 334 335 335 335 334 334 334 333 331 331 332 333 333 332 332 332 331 331 330 330 331 332 331 328 327 328 328 327 327 326 326 326 327 326 323 320 318 317 317 316 316 316 315 315 314 313 312 311 310 307 304 305 306 305 303 301 300 301 301 301 301 301 302 303 303 303 303 303 303 303 302 302 301 301 300 300 300 300 300 301 303
332 332 332 332 331 333 334 334 334 334 334 333 332 331 331 332 332 331 331 332 331 330 330 330 330 330 329 328 329 329 328 327 326 326 326 326 327 327 322 318 316 314 314 315 315 315 314 313 313 311 310 309 306 304 305 306 306 303 302 301 301 301 303 303 304 305 305 306 307 307 306 306 307 306 306 305 304 304 302 301 301 300 300 300 300
331 331 331 331 331 331 332 332 334 334 334 334 333 332 332 331 331 330 330 331 330 329 329 329 329 330 330 329 330 330 329 327 326 326 326 325 326 326 322 317 317 315 313 314 313 313 313 312 312 310 309 309 307 305 306 307 305 303 302 302 302 303 305 307 307 308 308 308 308 308 308 308 308 308 308 307 307 306 305 304 303 302 301 300 300
331 330 330 330 330 331 331 331 332 332 333 333 332 332 332 330 330 331 330 331 331 329 328 329 329 330 330 331 330 330 329 327 327 327 326 325 325 327 322 316 317 318 316 315 313 311 311 311 311 311 310 310 310 307 307 306 304 303 302 302 302 304 307 308 308 308 308 309 309 309 309 309 309 309 308 308 308 307 307 307 306 305 303 302 300
330 330 329 329 329 329 329 330 330 331 332 333 331 331 331 330 330 331 330 330 330 329 328 329 330 330 330 331 330 330 329 329 329 329 327 325 325 326 323 317 317 319 319 318 316 311 311 312 312 313 312 312 311 309 306 306 304 303 303 303 303 304 307 308 308 308 309 308 309 309 309 309 309 308 308 308 308 308 307 307 307 306 305 304 303
330 329 329 328 328 328 328 329 330 330 330 331 330 330 331 331 331 330 329 329 329 329 329 329 329 329 330 329 329 330 330 329 330 328 326 326 325 324 323 320 316 316 318 319 317 312 310 312 312 312 313 312 311 310 307 306 305 304 304 303 303 305 307 308 308 308 308 308 308 308 309 309 308 308 308 308 308 308 308 308 307 307 306 305 304
329 328 328 328 327 327 327 328 330 330 330 329 329 329 330 331 331 330 328 329 329 328 328 329 329 330 330 330 330 330 330 329 328 327 325 326 325 323 322 322 319 316 315 316 317 314 310 312 312 312 313 313 312 309 308 306 306 307 307 306 304 304 306 308 308 307 308 308 308 308 308 308 308 308 308 308 308 308 308 308 308 307 307 306 305
327 327 327 327 327 327 327 327 328 329 329 329 329 328 329 329 331 331 330 330 330 328 327 328 329 330 331 331 330 331 329 328 328 327 326 325 324 323 323 322 319 317 315 314 316 315 312 311 312 311 313 314 312 309 308 307 307 310 311 310 308 306 305 306 307 307 308 308 308 308 308 309 308 308 308 308 308 308 308 308 308 308 307 307 306
327 326 326 326 326 326 325 326 327 327 328 329 329 328 328 328 329 331 330 330 330 330 328 328 330 330 331 331 331 330 329 328 326 326 326 325 324 324 323 321 318 316 316 315 314 314 313 312 312 311 313 313 312 310 309 308 309 311 312 311 312 309 307 307 307 307 308 308 308 308 308 308 308 308 308 308 308 308 307 307 307 307 307 307 306
326 326 326 325 324 324 324 324 325 326 326 328 328 327 327 328 328 329 329 328 328 328 328 330 330 330 330 331 331 330 330 328 326 326 326 325 324 324 322 319 317 315 316 315 314 315 315 314 312 311 312 313 312 311 311 310 310 310 311 312 312 312 311 310 309 308 308 309 308 308 308 308 308 308 308 308 307 307 307 307 307 307 307 307 306
326 326 325 323 323 323 323 324 325 326 326 327 327 327 327 328 328 328 327 326 326 325 326 329 329 328 329 330 330 328 328 327 326 326 325 324 323 323 320 318 316 316 316 316 315 315 316 316 314 312 312 312 312 312 312 312 311 310 310 311 312 312 312 311 310 310 309 309 309 308 309 309 309 308 308 307 307 307 307 307 307 307 307 306 306
326 324 322 322 322 323 324 324 325 326 327 327 326 326 326 326 327 326 325 325 325 325 325 326 328 328 328 329 329 328 328 327 326 325 324 324 323 321 318 316 315 315 316 316 315 316 316 316 316 313 311 312 312 312 312 313 312 311 310 310 312 312 312 311 311 310 310 310 310 310 309 309 309 309 309 308 307 307 306 306 307 306 306 306 306
325 323 321 321 322 323 324 324 325 325 325 325 325 324 324 324 324 324 325 324 324 325 324 324 326 328 327 328 329 328 328 327 326 325 323 322 322 320 317 316 316 314 315 317 316 316 317 316 316 315 313 313 312 313 313 313 313 312 312 311 311 312 312 312 312 311 311 311 311 310 310 310 309 309 309 308 307 307 306 306 306 306 306 306 306
323 321 321 321 322 322 322 322 323 323 324 324 323 324 324 323 323 322 323 323 323 323 322 322 324 324 325 327 327 327 328 328 327 325 324 322 321 320 316 316 316 314 313 317 317 317 318 317 317 316 314 314 314 313 314 314 313 313 313 312 312 312 312 312 312 312 312 312 312 311 311 310 310 310 309 309 308 307 307 306 306 305 305 305 305
322 321 320 320 321 320 321 321 321 320 320 321 322 323 323 323 322 322 322 322 322 321 321 321 322 322 322 324 324 325 327 328 326 324 325 323 322 320 317 317 317 313 312 316 317 316 318 318 317 316 316 315 315 315 315 314 314 314 313 314 314 313 313 313 313 313 313 313 312 312 311 310 310 309 309 309 308 308 307 305 305 305 305 305 305
321 320 319 320 320 320 321 322 320 319 319 320 320 321 321 323 323 323 323 322 321 321 321 321 321 321 322 322 322 324 325 325 325 325 325 325 322 320 320 320 319 316 315 317 317 317 318 317 317 317 316 316 316 316 315 315 315 315 315 315 314 315 314 314 314 314 313 313 312 311 311 310 309 309 309 309 310 310 308 306 305 305 305 305 304
320 319 319 319 320 320 322 321 320 319 318 318 319 319 320 321 322 323 323 322 322 322 321 321 321 321 321 321 322 323 323 323 324 324 324 324 323 322 322 321 320 319 318 319 318 317 318 318 318 318 318 318 317 317 316 316 316 316 316 316 315 315 315 314 314 314 313 313 312 311 311 311 311 311 311 311 312 311 310 308 306 305 305 305 304
318 318 318 318 320 321 322 321 320 319 317 317 317 318 318 319 320 322 322 322 322 322 321 321 321 321 321 321 321 321 322 322 323 324 323 323 323 322 322 321 320 320 320 320 319 319 319 319 318 318 318 318 318 317 317 316 316 316 316 316 316 316 315 315 315 315 314 313 312 312 312 312 312 312 312 313 313 312 311 310 309 307 306 305 304
318 317 318 319 321 321 321 320 319 318 316 315 315 316 318 318 319 321 322 321 321 321 320 320 320 319 320 320 320 319 319 319 319 320 321 321 320 320 320 320 320 320 320 320 320 319 319 319 320 319 319 318 318 318 317 316 316 316 316 316 316 316 316 316 316 316 315 314 313 313 313 313 313 313 313 313 313 313 312 311 311 309 308 306 305
318 319 320 321 321 320 319 318 316 315 314 313 313 314 316 317 318 320 320 320 320 320 319 319 319 319 319 320 319 318 318 318 317 317 317 317 317 316 315 316 316 317 318 319 318 318 317 317 317 319 320 320 320 319 317 317 317 316 317 316 316 316 316 316 316 316 316 315 315 314 315 314 314 313 313 313 313 313 312 312 311 310 308 307 305
321 322 322 320 319 318 316 314 312 312 312 312 312 312 313 315 316 317 319 320 320 320 320 320 320 320 319 320 319 319 319 318 318 319 319 318 317 317 317 315 314 314 314 315 315 314 313 312 313 315 319 320 321 321 320 320 319 318 317 317 317 317 317 317 317 317 317 316 316 316 316 316 315 313 313 313 313 311 311 312 311 310 309 307 305
322 321 320 319 317 316 313 311 312 312 312 312 312 312 312 312 313 316 320 321 320 320 320 321 322 321 321 321 321 321 320 319 318 320 321 321 321 321 321 320 319 317 315 314 314 313 313 313 312 312 314 315 317 319 319 320 320 319 319 319 318 318 319 319 319 319 318 318 318 318 317 316 316 314 313 313 312 311 311 311 311 311 310 308 307
319 318 317 316 315 313 311 311 311 311 311 313 313 313 313 312 313 316 320 321 320 321 322 322 322 322 322 322 322 321 321 321 320 321 321 321 321 321 320 321 321 321 320 319 319 318 318 318 317 315 315 314 314 314 315 317 318 319 320 320 319 319 319 320 320 320 320 320 319 319 317 317 317 316 315 314 313 312 312 312 312 312 311 309 308
317 316 315 314 312 311 310 310 310 309 310 312 313 314 314 314 316 319 320 320 321 322 323 322 322 323 323 322 321 322 322 322 322 322 321 321 320 320 320 321 322 322 321 321 321 321 321 321 320 319 318 317 316 315 315 316 317 318 318 319 321 321 320 320 320 320 320 319 319 318 318 317 317 316 317 316 314 313 313 313 312 311 311 310 308
315 315 314 313 311 310 309 308 307 308 307 308 310 313 314 316 318 318 318 319 321 322 322 322 321 323 323 321 320 321 321 322 321 321 320 320 319 319 319 321 322 322 322 322 322 323 323 322 322 321 321 320 320 320 319 319 319 318 318 319 320 321 321 321 320 320 320 319 318 318 318 317 317 317 317 316 315 314 313 313 312 311 310 309 308
313 313 313 313 311 310 308 306 305 305 305 304 306 309 312 314 315 315 314 316 318 318 317 318 320 321 320 318 316 316 315 315 314 314 313 313 312 311 311 312 313 315 318 320 321 322 322 322 322 322 321 320 319 319 319 318 318 318 318 318 318 319 320 320 320 320 320 319 319 318 317 316 316 316 316 316 315 315 314 313 311 310 309 308 307
309 309 310 310 309 308 308 307 304 302 302 302 302 304 305 307 310 312 313 313 313 312 311 312 315 317 316 313 312 311 310 308 308 307 307 306 305 304 303 302 302 305 310 313 314 315 316 317 319 319 319 319 319 318 318 318 318 318 318 319 319 318 317 318 319 320 319 319 318 318 317 317 316 316 315 315 315 314 313 312 311 310 309 307 306
Wind_Speed
17 15 15 16 14 13 13 12 11 10 10 10 11 11 11 12 11 12 11 11 13 11 11 11 9 8 7 6 7 8 12 15 15 14 11 12 14 13 12 12 11 10 10 10 10 10 11 12 13 13 12 12 13 14 13 13 13 13 11 10 10 11 11 10 11 11 10 10 10 11 11 11 12 12 12 13 14 14 15 15 16 16 16 16 17
19 17 16 16 14 14 13 12 10 10 10 9 11 11 11 12 11 11 10 12 13 10 10 10 10 9 5 5 7 9 14 16 16 15 12 13 14 13 12 12 12 10 9 10 11 11 12 13 12 11 10 10 11 13 13 12 11 12 12 12 11 11 11 11 11 10 10 10 10 10 10 10 11 11 11 12 13 14 14 14 15 15 15 16 16
19 17 16 15 13 12 8 8 9 9 10 10 11 11 11 11 9 11 10 10 11 9 9 9 9 10 7 8 7 9 15 18 17 15 13 13 13 12 12 12 11 10 10 11 11 11 12 12 10 9 9 8 8 9 11 11 10 10 11 12 11 11 11 12 11 11 11 10 9 9 8 9 10 10 11 12 12 12 13 13 14 14 14 15 16
19 17 15 14 12 10 7 8 10 9 9 9 9 9 10 9 9 11 7 6 11 12 10 9 8 9 8 8 7 9 14 17 18 16 14 14 12 10 12 11 10 10 11 11 10 11 11 9 8 7 7 7 6 6 7 8 8 8 9 10 12 12 12 13 12 11 12 13 12 10 9 9 10 11 12 12 11 11 12 12 13 14 13 14 15
18 16 14 12 10 9 9 10 10 10 10 9 9 9 9 9 10 9 4 6 13 14 13 11 9 9 8 8 9 10 14 16 17 17 17 16 13 11 12 11 10 10 10 9 8 8 8 7 7 6 6 6 6 6 6 5 5 6 7 8 10 12 13 13 13 12 13 14 15 13 11 10 11 12 12 12 12 12 12 12 12 12 12 13 13
17 16 14 11 10 10 11 10 11 11 10 10 9 8 8 8 8 6 5 9 11 12 12 11 9 8 8 8 12 14 13 15 17 17 16 16 15 14 14 13 10 10 8 7 7 7 7 7 6 6 6 6 6 6 5 5 4 4 4 6 7 9 11 12 12 12 11 13 15 15 14 13 13 13 13 12 13 12 12 12 11 11 11 12 12
14 16 15 13 13 12 12 12 11 9 8 8 9 8 6 7 7 4 6 9 10 10 9 9 9 9 7 6 12 16 15 14 15 16 16 14 15 15 15 13 10 9 8 7 7 7 7 7 7 6 6 6 6 6 5 4 4 3 3 3 4 6 8 8 8 9 9 10 12 14 15 15 14 15 14 14 14 12 11 12 12 11 11 11 11
15 16 14 14 15 14 14 14 11 8 7 9 10 8 7 8 7 5 6 9 11 11 8 9 10 10 9 7 9 13 16 15 14 16 16 12 12 13 13 11 9 9 8 7 8 7 7 7 7 6 6 6 6 6 6 5 4 4 3 3 3 3 4 4 5 6 6 7 9 11 13 14 15 15 15 15 15 14 14 15 14 13 12 12 11
18 16 13 13 13 12 13 13 11 8 8 9 8 6 7 7 7 5 6 9 13 11 9 10 11 12 12 10 9 12 16 16 14 15 14 12 12 11 11 10 8 8 8 8 8 8 8 8 7 6 6 6 6 6 7 6 5 5 4 3 3 3 2 2 3 3 3 3 7 9 11 12 12 13 13 14 14 14 15 16 16 15 14 13 12
19 16 13 12 11 11 11 10 10 9 10 9 6 6 6 5 7 6 5 10 12 11 10 10 10 11 11 12 11 13 14 14 13 12 12 13 13 11 10 10 9 8 8 9 8 8 8 8 8 7 7 6 5 5 6 7 6 5 5 4 4 4 3 2 2 2 2 2 5 6 8 9 8 8 10 10 11 12 12 12 13 14 14 14 14
18 16 14 11 10 11 10 9 10 10 10 8 4 6 6 4 6 7 6 10 10 10 12 11 10 10 10 11 12 13 13 12 11 12 12 12 13 12 11 11 10 9 9 8 8 8 7 8 9 8 9 9 8 7 7 7 7 6 5 4 5 5 4 4 3 2 2 3 4 5 6 6 5 5 5 5 7 8 9 9 8 9 10 12 12
17 15 14 13 12 12 9 9 11 11 10 8 5 6 8 7 7 8 8 10 10 10 13 13 13 12 10 12 12 11 11 10 9 11 12 12 12 12 12 12 10 9 9 9 8 8 7 8 8 9 11 12 11 10 9 8 9 8 7 8 8 8 8 7 6 5 4 4 4 5 5 5 4 3 2 3 5 5 5 5 5 4 5 7 8
17 16 15 15 14 13 12 12 12 12 11 8 5 6 9 9 7 8 8 10 11 11 14 16 16 14 11 11 11 10 9 10 10 9 9 10 11 11 11 11 9 7 8 8 9 8 7 7 8 7 10 12 13 11 11 11 12 12 13 13 13 12 12 11 10 10 8 7 6 6 5 5 5 3 3 5 6 6 5 5 5 3 3 5 5
18 18 16 14 15 15 14 13 11 11 11 8 6 7 11 10 9 10 10 10 12 12 14 15 13 12 12 10 9 8 8 9 8 8 8 9 9 8 9 9 9 8 7 8 9 8 8 8 8 8 8 11 11 10 12 14 15 15 16 15 15 16 15 15 15 15 14 12 11 10 9 9 8 8 9 9 10 11 11 10 9 8 6 5 4
18 17 15 13 15 17 15 13 11 10 9 8 9 8 13 10 11 12 12 11 11 12 15 12 11 14 13 7 4 4 4 5 5 7 9 8 7 6 7 10 10 9 10 10 11 10 9 9 9 10 11 11 11 11 13 16 16 16 17 16 15 15 16 16 16 17 17 16 16 16 15 14 13 14 14 14 14 15 14 14 13 12 9 7 4
17 14 13 13 15 16 14 12 11 10 7 6 8 9 12 9 10 12 14 14 11 12 14 11 13 14 8 4 4 4 2 3 5 7 9 8 7 7 8 10 9 10 11 10 11 12 10 10 10 12 13 12 11 13 14 15 15 16 16 15 14 14 14 15 15 15 17 17 17 18 18 17 17 16 16 16 16 15 15 15 14 14 13 12 10
15 13 13 13 13 13 11 10 11 9 6 5 8 11 10 10 12 13 15 15 13 12 12 13 14 10 5 4 4 2 2 6 6 5 6 6 8 9 10 12 11 10 10 10 11 11 11 12 12 12 13 13 14 14 13 12 14 14 14 14 13 13 14 14 14 15 16 17 16 17 17 16 17 17 17 16 16 15 15 15 15 16 16 16 16
15 14 14 12 12 12 11 10 10 8 7 6 7 11 12 11 12 14 15 15 15 14 14 16 13 7 6 5 2 2 7 10 6 3 3 6 12 14 12 11 12 11 11 12 11 11 11 13 13 13 13 13 13 12 11 11 12 13 12 12 12 13 14 14 15 16 16 16 16 16 15 15 16 16 17 17 16 16 16 16 16 16 17 17 16
13 13 13 11 11 12 11 9 8 7 8 8 6 8 12 12 11 13 15 15 16 16 16 18 13 6 6 4 3 7 12 12 6 4 4 5 11 15 11 7 8 12 14 13 13 12 12 13 13 13 12 11 10 11 12 12 12 12 11 10 11 12 15 15 15 15 15 15 15 15 15 15 16 16 17 17 17 17 17 17 17 16 17 17 16
10 11 11 9 10 12 11 10 11 9 8 8 6 7 11 13 12 12 14 16 17 16 17 19 15 9 7 5 6 10 12 11 9 9 5 4 7 9 9 7 10 14 15 14 13 12 12 13 14 14 13 12 11 10 12 13 12 11 10 9 10 12 14 15 15 15 14 14 14 14 15 15 16 16 17 17 17 18 18 18 18 17 17 17 16
10 11 10 8 9 10 10 10 11 9 7 8 7 8 10 12 13 13 14 17 17 15 17 19 17 13 9 8 10 12 11 9 10 11 7 5 5 5 7 8 10 13 14 13 11 10 10 12 14 15 14 13 11 8 10 12 12 11 10 10 11 12 12 13 14 14 14 14 14 14 15 15 16 16 17 17 18 18 18 18 18 18 17 17 17
12 11 10 9 8 8 8 9 9 8 8 8 8 9 10 12 13 13 13 15 16 17 18 19 18 15 12 11 12 12 10 7 8 11 8 4 4 6 9 9 7 8 10 11 10 8 9 10 12 14 14 13 11 8 10 12 12 12 11 10 11 11 11 12 13 14 14 14 14 15 15 15 15 16 16 16 17 17 17 17 17 17 17 17 17
10 10 9 9 9 8 8 8 9 9 8 7 8 9 10 12 14 14 13 14 15 16 16 17 17 15 12 11 13 13 9 6 8 11 8 4 4 6 10 11 10 9 10 10 10 10 10 10 12 14 15 14 12 9 10 12 13 13 12 11 11 12 12 13 14 14 15 15 15 15 16 16 16 15 16 15 16 16 15 15 15 15 15 16 16
9 9 8 8 8 8 8 8 8 8 8 7 7 9 10 13 15 15 15 15 15 16 15 16 17 14 11 10 11 14 12 9 11 12 11 9 6 6 10 13 11 10 11 11 11 11 11 11 13 15 14 12 10 9 11 13 14 13 13 13 13 13 14 14 15 15 16 16 17 17 17 16 16 16 16 16 16 15 15 15 14 14 14 14 14
11 10 9 8 7 7 7 8 8 8 7 6 7 9 11 12 14 15 15 15 15 17 17 18 17 15 13 11 10 12 13 11 11 12 13 12 8 6 11 14 12 11 12 11 11 12 11 12 13 14 12 9 9 11 12 13 14 13 14 15 15 14 15 15 15 16 16 17 17 18 18 17 17 16 16 16 16 15 15 14 14 14 13 13 13
11 10 9 8 6 6 5 5 6 6 6 6 7 9 10 11 12 14 16 14 13 15 17 18 19 16 15 13 11 11 13 12 12 12 14 14 10 8 8 13 13 14 12 12 13 12 11 13 14 14 12 10 11 13 13 13 14 14 15 15 15 15 15 16 17 17 17 18 17 17 17 17 17 16 16 16 15 15 14 13 13 12 12 11 11
11 9 9 8 7 7 6 5 5 5 6 6 6 7 8 9 11 13 15 13 12 14 15 17 18 16 15 15 13 11 11 13 14 13 15 17 14 9 7 11 9 10 11 12 13 13 13 15 16 16 15 12 10 12 13 13 15 15 15 15 15 15 16 17 17 17 17 16 16 16 15 15 15 14 14 14 14 13 13 12 12 11 10 10 9
12 10 9 8 8 7 7 8 5 4 6 6 6 8 9 10 11 12 14 13 12 13 17 17 16 16 16 15 14 11 11 13 14 13 15 19 15 10 9 14 9 5 6 8 9 12 15 16 17 17 15 12 10 11 13 14 16 16 15 14 15 16 16 16 15 15 14 14 13 13 12 12 12 11 12 11 11 11 11 11 10 10 10 9 8
11 10 9 8 8 7 7 9 7 5 5 5 6 7 8 10 11 12 12 12 11 11 16 17 15 15 16 15 15 14 12 12 13 14 17 19 14 10 11 16 14 7 4 4 5 10 15 16 18 17 14 14 12 11 14 15 16 16 15 14 14 16 16 15 14 13 12 11 10 10 9 9 8 8 8 8 8 8 8 8 8 8 8 8 8
11 9 8 7 7 7 7 9 9 7 6 6 6 6 6 7 9 11 12 14 12 11 12 13 15 15 15 15 14 14 14 14 13 15 18 17 15 14 15 15 14 12 9 5 4 10 16 16 18 19 17 16 14 12 14 16 16 15 15 14 14 15 16 14 13 12 10 9 8 7 6 5 5 5 4 4 4 5 5 5 6 6 6 7 7
10 9 8 7 7 7 7 8 9 8 7 8 7 5 6 6 7 9 13 15 15 14 11 9 12 14 13 14 13 12 14 15 13 15 17 17 16 16 17 16 12 13 14 10 6 9 15 15 18 21 19 16 14 14 15 15 15 14 13 13 13 15 16 15 13 12 10 9 7 6 5 4 3 2 1 1 1 1 2 3 4 5 5 6 6
10 9 8 7 7 7 7 8 8 8 7 8 7 6 5 5 6 8 11 13 15 16 14 10 10 12 13 14 14 13 14 15 14 15 15 16 18 16 16 17 12 13 16 15 10 9 12 14 18 22 20 17 15 16 17 15 14 15 15 13 12 14 16 16 14 13 12 10 9 7 6 5 4 4 3 3 3 3 3 3 3 4 5 6 6
10 9 8 7 7 6 7 7 8 8 8 7 7 7 6 5 6 8 9 10 11 13 16 13 11 12 14 14 13 13 14 14 16 16 14 16 17 16 16 14 9 12 15 17 17 12 10 12 18 22 20 18 18 18 19 17 16 17 18 16 14 14 15 16 15 15 14 12 11 10 9 8 7 7 6 6 6 6 6 6 5 6 6 6 7
10 9 8 7 6 6 6 6 7 7 8 8 7 7 7 5 6 8 7 8 9 10 13 13 12 13 14 14 13 14 14 14 16 16 15 16 15 16 18 13 9 11 12 16 21 16 12 12 17 22 22 19 19 19 20 19 17 17 18 17 18 17 15 16 17 17 16 15 14 12 11 10 10 9 9 9 9 8 8 8 8 8 8 8 8
10 8 8 7 6 6 6 7 7 7 7 8 7 7 8 7 7 7 6 7 9 10 10 12 12 11 13 14 13 14 14 15 17 16 15 17 17 17 16 11 10 12 12 14 22 20 15 14 15 20 23 20 18 20 21 20 18 18 17 16 18 18 17 18 18 17 17 17 17 15 14 13 12 11 11 11 11 11 11 11 11 11 10 10 10
9 8 8 7 6 7 8 8 8 8 8 7 7 7 7 7 8 8 7 7 9 9 10 12 12 11 13 14 12 14 15 15 16 16 16 18 18 15 12 11 11 13 11 11 20 21 18 16 15 18 23 21 18 20 22 21 19 18 16 16 18 18 18 19 19 17 16 17 19 18 17 15 14 13 13 13 13 13 14 14 13 13 13 12 12
9 8 8 7 7 8 8 9 9 8 8 7 7 7 6 6 8 8 9 8 8 9 9 12 15 14 13 14 14 16 17 13 14 16 16 18 17 13 11 13 10 12 11 8 15 22 22 20 18 17 20 21 18 17 20 22 21 18 16 18 19 19 20 21 21 20 18 18 20 19 18 17 16 15 15 15 15 16 16 17 16 16 15 15 14
9 8 8 7 9 9 7 8 10 10 9 8 8 7 6 6 6 7 10 8 7 9 8 10 15 13 11 14 13 14 16 13 14 14 12 13 14 11 12 15 12 14 12 4 7 15 16 18 20 19 17 20 19 16 16 20 22 21 20 20 21 21 21 23 23 23 22 21 21 20 20 19 18 18 17 17 18 19 19 19 19 18 17 17 16
9 8 8 6 7 9 6 6 11 12 11 11 11 9 6 5 5 7 10 6 4 6 6 9 13 11 8 11 9 9 13 12 14 13 7 7 7 7 8 11 11 16 16 7 4 6 4 7 15 16 14 18 20 17 15 16 19 23 24 23 22 22 22 23 25 24 22 21 21 21 21 19 18 18 18 19 19 21 21 21 21 20 19 19 18
10 8 8 6 6 9 9 10 12 12 11 13 12 10 9 7 6 7 7 6 6 7 7 9 12 10 8 9 7 7 10 9 11 13 7 5 2 3 2 1 4 12 14 8 7 7 6 5 8 9 7 10 13 13 13 13 13 17 21 22 24 23 21 21 23 23 21 20 21 22 21 20 20 20 20 20 20 21 22 23 22 22 21 21 20
10 9 9 8 7 10 11 11 11 9 10 11 10 10 11 11 7 4 4 4 6 5 5 8 9 8 8 9 9 9 10 8 8 11 10 6 1 1 2 3 4 5 5 4 5 7 7 7 7 8 7 6 8 11 13 14 13 12 12 13 17 18 16 15 17 20 21 20 21 21 21 22 22 22 22 21 20 20 21 23 24 24 23 23 22
12 11 10 8 8 10 10 9 9 8 8 9 9 9 9 9 8 6 6 5 4 4 4 4 4 5 7 9 9 9 9 8 8 8 9 7 2 2 1 1 1 3 1 1 2 3 5 7 7 8 9 10 11 11 12 13 14 15 15 13 11 11 11 11 11 14 18 21 22 21 22 22 22 23 23 22 22 22 21 22 24 24 24 24 23
14 12 11 11 12 13 11 9 8 7 6 6 6 7 7 6 7 9 8 6 6 5 5 6 6 6 8 10 9 7 6 7 7 6 6 6 4 2 1 1 0 1 2 1 2 3 5 7 6 6 7 9 10 11 11 13 15 16 17 17 16 15 14 12 12 12 13 17 19 20 22 23 23 24 24 24 24 24 24 23 22 23 24 24 23
14 13 13 14 14 15 13 10 9 7 6 5 4 4 5 4 6 9 9 6 4 3 3 4 4 5 9 10 9 7 7 7 5 4 3 3 3 2 1 2 2 2 2 3 4 5 6 8 8 8 7 8 9 9 9 11 12 12 14 16 18 20 19 18 17 17 17 16 15 16 20 22 22 24 25 26 25 25 23 22 21 22 23 23 23
14 15 15 15 14 14 12 11 10 9 7 6 4 4 4 4 5 5 6 6 3 2 3 4 6 6 8 11 12 10 9 9 6 4 2 1 2 2 3 3 4 5 6 6 7 8 10 10 11 11 9 9 11 10 9 10 10 10 11 13 16 17 17 18 17 18 18 18 19 20 20 19 20 24 27 26 26 25 22 19 20 22 23 23 22
18 18 17 15 14 12 12 12 11 10 9 7 6 5 5 4 5 4 5 7 5 5 6 7 8 9 9 10 11 10 8 7 7 6 5 4 3 3 3 4 4 6 7 9 10 10 12 13 14 15 15 14 15 14 13 13 13 13 13 14 15 15 16 17 17 17 17 16 17 18 16 16 17 21 25 25 26 26 22 19 20 21 23 23 22
19 18 16 15 14 13 13 13 12 11 10 8 6 6 6 6 6 5 5 6 6 7 7 8 7 7 8 9 8 7 5 5 5 4 4 3 2 2 2 3 5 6 6 7 8 9 11 12 14 16 17 18 19 19 18 18 18 17 17 17 18 18 19 20 20 19 18 17 16 13 12 16 19 20 21 22 24 25 22 19 21 22 23 24 23
18 17 16 15 14 14 14 13 12 12 10 8 6 6 7 7 7 7 5 3 5 7 6 6 6 6 8 10 9 6 3 4 4 2 1 2 4 4 5 5 6 7 8 9 10 10 10 11 12 14 16 18 19 20 20 20 20 21 21 21 20 20 21 21 19 20 20 20 21 18 17 20 24 23 22 21 20 22 23 22 22 23 24 25 24
19 19 18 17 15 14 13 12 12 12 11 9 7 6 6 7 8 8 5 3 6 6 5 5 5 6 6 7 6 4 3 3 2 2 3 4 5 5 5 6 6 8 9 9 10 12 12 13 14 15 16 18 19 21 22 23 24 24 23 22 20 20 21 19 17 20 23 24 25 23 21 21 23 23 23 21 20 22 25 26 24 24 25 26 25
20 19 18 18 17 15 14 12 11 11 12 10 8 7 7 6 7 9 9 9 9 8 7 7 6 6 6 5 3 2 1 1 2 3 4 4 5 5 6 7 8 8 9 9 10 12 14 16 17 18 19 20 21 23 25 27 28 27 27 27 26 23 22 20 19 21 23 23 24 22 20 21 23 22 23 23 23 25 29 29 26 25 27 27 25
18 16 16 17 17 15 14 13 11 11 11 10 9 8 7 6 6 7 9 11 12 11 11 11 8 5 6 7 5 3 2 3 3 4 5 5 6 7 8 10 10 10 11 12 13 15 17 18 19 20 21 22 22 24 26 26 27 27 27 29 29 27 26 26 24 19 16 17 21 20 20 23 24 25 26 22 17 17 24 27 27 28 30 29 27
Wind_Direction
172 175 173 172 174 180 183 187 196 199 196 200 196 194 202 199 205 207 198 210 217 212 210 205 193 192 188 158 166 173 141 128 128 122 117 119 122 121 117 111 104 99 96 94 96 99 95 94 95 94 90 85 74 71 71 67 68 71 77 88 90 88 87 84 84 83 83 81 79 82 82 83 84 81 76 76 77 74 71 73 73 71 70 68 67
174 176 177 178 179 184 181 181 195 197 192 201 197 195 204 201 208 208 201 218 217 205 204 198 184 174 176 191 197 178 147 132 125 125 125 124 123 122 119 115 107 103 102 101 105 105 101 101 101 94 85 81 70 65 69 70 71 69 68 78 86 89 89 86 84 81 80 81 80 80 80 82 82 81 80 80 79 76 72 72 74 72 72 72 69
174 177 178 180 179 179 177 182 194 196 196 203 202 195 198 203 205 204 209 214 200 187 187 186 185 178 195 220 189 139 141 138 126 127 128 118 118 120 118 115 114 112 109 107 106 102 103 105 104 96 85 80 75 67 66 68 74 74 70 73 79 86 88 86 84 81 77 76 79 82 81 83 83 82 82 82 81 80 78 74 73 71 72 73 71
177 180 178 181 173 169 181 196 198 198 202 201 202 194 194 205 203 206 226 206 177 169 174 180 192 194 196 196 160 122 133 136 129 127 123 115 113 117 120 123 120 113 109 108 105 101 104 107 104 99 90 79 77 73 68 68 73 75 72 72 78 83 86 86 83 80 76 72 72 76 81 86 85 83 83 82 81 80 80 78 74 70 69 71 72
181 176 172 175 165 173 191 199 201 197 195 192 195 198 203 210 202 209 216 172 177 173 173 181 191 189 167 140 129 134 133 130 130 129 127 124 120 118 123 127 126 121 115 109 106 108 109 109 105 97 85 73 71 70 69 72 77 78 70 71 81 84 85 87 85 83 79 72 68 68 76 86 88 85 83 82 79 77 76 76 76 73 70 70 71
183 172 169 175 169 186 198 200 203 196 189 185 186 196 215 216 202 214 179 153 171 180 179 184 178 154 141 113 103 120 129 126 130 132 131 131 132 133 131 127 129 130 124 114 111 112 111 107 101 93 84 73 69 68 68 71 79 86 73 73 86 88 88 88 87 87 85 77 70 67 72 82 89 89 86 84 80 77 74 74 75 74 74 71 70
182 173 176 182 179 192 200 200 201 190 183 184 186 193 212 213 196 192 174 160 163 166 165 173 162 131 121 84 90 114 127 124 129 135 132 132 140 141 136 134 133 131 130 125 117 109 104 100 93 90 90 83 75 72 74 76 78 86 83 83 95 97 96 94 91 89 88 85 78 73 74 78 84 86 85 84 81 79 75 73 74 73 73 71 69
180 177 184 187 185 193 197 197 197 187 188 190 191 202 210 201 187 154 147 158 165 157 144 148 141 125 112 79 91 121 130 130 133 135 133 136 143 143 140 136 129 128 129 124 115 108 101 94 91 89 90 90 85 77 72 72 77 85 86 88 102 116 123 115 107 100 90 88 89 86 83 80 80 81 83 83 80 78 75 72 71 70 70 69 69
183 185 193 192 189 192 195 198 194 188 194 188 188 222 230 198 175 156 138 151 160 148 133 139 126 114 108 101 115 126 129 135 135 132 134 138 142 148 144 130 124 128 125 122 117 111 103 93 88 86 86 85 85 81 71 68 70 78 82 81 87 97 118 132 138 132 115 104 105 102 95 87 83 82 81 81 79 77 75 73 71 70 68 65 66
186 193 202 198 191 186 191 200 197 199 200 189 195 223 229 210 178 170 147 143 145 128 129 142 122 111 113 114 124 125 126 134 134 132 136 136 139 149 145 129 128 129 127 128 119 110 104 94 83 73 73 71 78 87 76 70 71 74 83 87 86 83 84 111 144 156 162 154 136 125 109 96 90 85 83 82 80 76 73 70 69 68 66 63 65
186 194 201 205 202 187 188 198 199 208 205 195 211 213 211 217 190 185 163 135 130 130 141 145 130 128 128 120 123 125 128 136 137 131 131 134 135 138 135 128 128 125 127 131 123 118 106 93 84 70 70 71 71 82 78 73 75 74 81 92 93 93 91 93 104 118 138 148 158 156 131 117 109 90 84 81 78 77 68 62 61 63 64 62 62
187 191 199 208 208 194 190 198 202 207 204 200 199 200 213 215 191 186 166 136 137 144 147 149 137 127 120 116 121 125 127 133 137 132 131 133 132 133 131 129 130 124 122 122 121 121 104 100 104 86 76 75 70 70 73 79 81 76 79 89 91 91 89 85 86 89 101 112 130 147 140 134 123 88 47 28 51 67 54 45 49 49 63 65 60
187 189 196 205 206 199 194 198 207 204 195 194 183 184 209 207 183 173 147 140 154 148 149 152 135 119 112 109 110 114 124 128 135 141 135 126 126 134 132 127 127 129 128 122 120 119 106 111 122 103 79 76 74 69 76 85 86 83 83 88 90 89 88 85 84 85 93 100 105 116 117 116 113 81 49 41 54 66 54 47 48 47 80 78 66
190 192 198 206 209 206 204 207 212 208 196 179 159 186 212 197 166 158 138 155 175 156 152 150 133 131 129 112 99 103 117 124 131 143 137 127 125 130 135 136 139 144 137 120 114 115 109 110 118 117 95 84 84 81 87 91 90 90 89 89 89 89 89 87 85 85 88 95 97 99 98 98 97 88 83 80 78 77 73 70 69 74 87 86 82
189 193 199 208 211 209 213 218 213 212 209 177 152 188 219 195 159 157 149 169 187 164 160 153 137 143 136 122 129 117 116 132 142 154 150 138 130 140 147 141 141 147 141 126 119 114 110 109 107 114 109 98 97 98 97 97 97 97 95 92 90 89 90 88 88 89 90 92 93 94 93 92 92 91 90 87 83 81 79 77 75 77 78 73 76
186 191 203 207 209 210 216 217 207 210 215 188 166 189 218 200 170 169 162 170 180 163 167 163 143 142 131 114 146 138 139 168 158 165 167 148 146 178 167 144 146 149 141 130 119 111 110 109 102 107 111 104 98 96 97 100 103 103 100 98 96 93 93 93 94 96 96 94 94 95 94 93 92 93 92 89 85 83 80 77 74 73 72 68 67
188 192 206 209 209 211 215 208 201 204 206 202 183 175 188 197 187 178 173 177 171 159 166 163 148 142 130 121 143 151 150 156 146 154 173 152 151 168 155 147 156 149 133 125 119 116 118 114 105 105 109 105 99 97 99 105 107 106 104 104 102 100 98 98 99 97 96 95 95 95 94 94 93 92 92 90 87 84 81 77 73 71 71 71 72
194 198 207 211 208 208 210 204 197 202 203 204 192 168 166 190 193 176 181 188 169 159 165 162 155 144 135 137 151 134 144 158 156 135 150 145 153 157 147 148 156 149 136 127 127 129 125 118 110 107 109 109 113 117 117 113 111 108 107 106 104 103 101 98 97 96 96 95 95 95 95 93 92 90 90 89 88 85 83 79 75 72 72 73 76
198 204 212 215 213 209 206 201 200 208 208 202 196 171 164 181 192 175 177 184 169 160 165 168 168 151 138 136 104 125 149 160 152 133 134 134 151 153 145 139 138 141 136 122 123 130 126 122 119 119 115 111 120 129 122 113 110 108 103 101 103 106 106 103 101 100 100 100 100 99 98 96 94 92 90 89 88 86 84 80 77 74 73 75 76
201 207 213 216 214 212 208 204 204 203 206 205 192 173 166 169 179 169 160 168 173 167 164 172 175 161 152 145 122 129 145 148 141 147 143 118 143 140 123 101 93 113 124 122 128 135 137 136 131 126 119 111 115 123 122 117 115 111 104 100 103 107 110 111 111 109 107 105 104 102 100 98 95 93 91 88 86 84 82 80 79 78 76 76 77
210 214 217 213 205 206 206 208 205 196 197 200 186 178 171 163 169 165 153 161 172 173 170 173 174 170 168 155 139 135 135 134 135 141 135 128 149 134 118 106 83 94 111 124 134 136 142 141 129 123 120 120 124 128 127 123 118 114 110 109 111 112 113 114 114 113 112 108 105 102 100 98 96 93 91 87 84 81 77 75 75 75 76 76 76
207 209 211 205 199 200 200 204 203 198 199 192 178 180 172 162 165 163 160 165 170 177 179 174 171 174 175 162 151 146 134 120 131 136 128 119 139 141 138 131 106 102 118 133 137 132 136 135 124 121 125 129 135 140 135 127 121 117 115 115 116 116 116 116 116 115 114 112 109 106 102 99 97 94 93 90 87 84 81 78 75 72 71 71 72
205 207 206 197 195 197 195 201 203 201 204 191 175 185 176 162 162 158 160 167 172 182 184 175 171 172 174 167 161 165 159 145 153 150 138 127 133 142 146 142 136 139 146 148 143 138 137 134 125 126 134 140 147 149 138 129 123 119 119 120 117 117 117 116 117 116 116 115 112 109 106 103 100 97 95 92 88 86 84 81 80 78 75 72 69
197 202 201 192 191 194 190 194 201 201 206 194 175 185 175 157 157 157 160 165 171 181 183 179 173 165 169 171 165 175 177 164 165 164 158 160 163 160 155 149 144 150 161 165 159 151 145 138 131 135 144 151 160 159 141 131 126 123 124 123 120 119 119 118 119 119 118 116 114 111 108 105 102 98 94 90 86 82 80 77 75 75 74 74 73
183 187 186 187 185 189 189 187 195 199 201 192 173 178 173 159 157 158 162 166 168 174 175 176 175 171 175 172 162 174 177 173 176 174 173 177 192 196 162 147 139 141 160 177 169 154 152 149 143 143 151 158 161 157 148 136 131 131 130 127 126 123 122 122 121 120 118 115 113 111 108 105 101 97 92 87 84 79 75 72 67 65 64 62 64
174 175 172 175 171 176 183 181 191 192 189 187 175 174 168 161 160 157 161 167 166 170 174 174 176 179 179 167 159 170 173 177 182 179 184 188 200 216 163 136 135 142 164 185 170 155 157 155 146 142 148 157 157 155 154 144 137 138 137 133 131 129 128 127 124 122 120 116 114 111 108 104 99 95 91 87 83 79 75 71 65 62 58 53 51
164 163 162 162 159 161 163 166 183 179 177 183 174 166 160 165 167 158 159 170 171 164 166 174 175 172 174 167 164 171 169 173 180 185 193 188 191 211 166 132 139 156 167 177 168 160 159 152 145 145 150 158 160 158 159 152 144 145 144 139 136 135 134 132 129 126 123 120 117 113 108 104 100 95 92 88 84 80 75 71 66 61 58 53 48
154 157 160 160 159 159 160 162 165 163 169 173 162 155 156 162 166 156 155 169 178 163 159 173 177 168 170 169 166 172 174 173 175 184 193 186 191 215 177 152 159 169 163 172 168 159 157 148 138 143 154 162 170 169 164 157 152 151 152 148 144 144 143 139 135 131 128 125 120 116 111 106 101 96 92 88 83 79 74 69 64 58 55 50 44
151 156 159 160 160 163 160 152 144 146 154 149 143 148 153 157 159 159 156 159 173 175 168 176 182 179 180 176 169 171 175 177 177 183 188 185 189 206 191 176 173 164 149 166 161 152 156 152 140 142 157 168 178 177 168 164 160 159 160 158 154 154 153 150 145 143 140 136 129 124 119 112 106 100 93 89 82 76 71 65 59 52 46 42 36
151 155 157 160 158 154 145 139 137 138 133 128 132 137 144 151 151 154 156 154 161 179 181 178 178 182 184 177 172 175 179 183 185 184 185 186 188 189 198 204 189 170 163 154 146 153 157 159 152 151 161 174 183 180 173 173 168 166 169 168 168 167 165 165 163 161 159 155 151 144 137 129 120 112 99 92 82 70 63 54 47 42 35 29 24
152 154 156 155 154 150 142 139 138 136 133 133 136 133 133 142 139 142 151 153 155 164 176 179 172 174 178 174 175 181 182 183 184 182 185 192 193 187 204 223 209 181 169 149 134 157 164 167 159 157 166 175 179 176 177 179 174 172 176 177 180 180 179 181 180 182 183 180 179 178 174 175 168 163 163 131 65 35 30 19 19 19 13 9 6
152 153 157 154 154 153 145 144 143 140 139 136 137 138 139 149 144 138 144 148 148 154 165 174 169 171 177 173 175 179 178 179 181 180 184 192 193 192 212 228 217 193 175 151 133 148 169 174 159 158 170 173 171 177 182 182 176 175 186 196 198 193 193 196 197 200 203 202 204 206 209 215 222 230 239 251 264 273 289 305 325 338 342 345 345
150 152 157 154 156 157 151 152 148 144 143 139 137 139 144 152 144 143 151 154 157 159 160 164 170 177 178 172 174 178 175 178 181 180 182 189 195 204 220 223 198 183 174 147 133 139 165 173 159 160 172 173 172 182 187 188 182 176 187 207 213 206 205 210 213 215 216 216 219 221 225 231 235 242 247 254 261 267 273 279 292 303 312 319 323
152 155 153 148 153 154 149 144 136 134 137 135 134 136 142 144 135 144 156 157 160 160 156 161 172 180 176 170 176 178 174 179 181 179 184 190 199 212 218 210 172 177 184 150 140 150 166 169 163 163 170 176 178 184 193 198 194 183 188 208 217 217 221 226 229 232 231 230 233 234 236 240 244 249 253 258 263 268 272 276 281 287 293 300 305
151 153 148 149 151 142 134 126 120 120 120 125 136 139 140 145 142 148 159 157 152 150 154 165 172 176 172 168 177 178 176 180 178 177 186 194 206 213 207 192 172 192 206 165 151 160 169 175 177 167 167 180 186 185 196 207 203 195 195 210 220 222 227 235 240 242 237 234 236 238 241 243 246 252 257 262 267 271 275 277 279 281 284 287 293
148 147 146 150 148 136 128 120 116 116 115 118 132 136 137 148 150 147 151 155 156 156 163 168 165 160 160 166 179 183 182 185 182 183 190 197 212 220 193 170 179 200 215 181 162 165 169 180 192 178 172 185 195 190 195 202 204 204 202 208 220 224 225 229 236 241 242 242 243 243 244 245 249 256 261 265 271 274 277 278 278 278 278 279 283
145 146 147 148 144 134 130 132 127 123 124 121 121 123 124 134 144 147 143 141 158 167 165 168 164 154 155 166 176 179 182 192 193 192 195 200 216 226 185 166 184 204 214 201 172 171 175 180 194 196 182 184 196 199 196 193 192 199 205 206 214 221 223 225 229 234 240 246 245 240 237 240 247 255 261 266 271 274 276 277 276 274 273 273 275
147 150 152 154 149 142 150 156 136 118 118 121 117 114 110 109 114 130 136 139 170 172 155 152 150 139 148 166 171 175 179 192 200 199 206 212 221 227 189 175 189 199 202 211 170 176 182 182 192 205 191 180 193 204 202 197 190 190 200 210 215 220 223 225 226 228 234 239 237 233 232 239 248 254 259 265 270 273 274 274 272 270 269 269 270
147 151 151 149 145 143 145 132 112 101 99 107 112 109 106 107 83 91 115 123 143 141 118 124 131 120 130 152 158 174 176 184 196 202 231 248 236 239 201 180 188 193 194 208 205 202 223 194 196 209 195 183 193 200 201 206 202 197 201 207 213 220 225 225 224 225 230 231 230 230 233 240 248 254 259 264 268 271 271 269 268 266 265 266 268
149 148 144 140 137 132 114 97 98 98 94 100 108 103 98 108 92 80 96 89 90 104 81 86 111 111 112 123 129 157 165 173 191 201 236 280 265 260 278 65 143 175 182 189 198 218 263 252 225 239 224 194 203 213 215 222 222 215 211 208 211 218 224 226 225 226 230 229 225 226 230 236 243 248 253 259 266 270 270 267 264 262 262 262 263
146 141 139 140 131 117 105 95 96 95 87 90 98 96 95 101 97 94 117 90 82 101 79 71 92 104 110 118 119 127 141 153 174 195 226 256 244 183 299 8 74 138 165 187 198 219 250 256 246 255 262 247 240 243 243 249 259 261 250 233 224 225 231 236 231 229 233 233 226 224 229 236 242 247 251 256 263 268 269 268 264 260 260 260 260
141 138 139 135 120 112 111 105 99 93 87 85 85 89 96 97 92 109 145 146 115 115 118 111 114 117 127 140 136 125 130 140 150 175 207 224 210 131 185 319 69 103 117 267 255 259 278 283 264 247 249 251 246 243 243 250 264 273 276 277 271 262 267 270 260 249 240 229 222 225 234 240 241 244 249 255 262 264 263 266 267 265 261 259 259
137 136 133 125 117 118 123 117 104 96 92 88 84 93 103 100 96 100 110 137 157 162 173 177 168 150 147 149 146 141 142 140 141 156 179 195 194 152 138 189 171 146 177 248 313 337 336 331 320 292 271 263 259 254 252 255 259 258 260 270 277 279 281 280 279 278 256 227 217 221 231 238 240 243 250 254 256 258 260 264 268 265 260 257 256
135 127 120 118 113 113 115 112 108 105 103 100 94 106 118 118 115 100 84 96 155 184 166 150 140 156 160 145 127 131 140 132 126 128 143 187 206 211 234 247 253 253 242 257 277 298 317 326 328 322 315 313 307 291 278 276 269 257 254 258 260 261 262 261 261 266 264 252 243 239 236 235 235 237 245 253 253 253 259 265 267 262 256 252 250
128 116 114 117 112 109 111 112 113 115 116 116 111 123 136 137 142 119 69 66 109 133 111 87 61 85 125 119 108 114 127 132 132 123 114 215 245 286 312 305 287 275 271 271 276 284 291 294 295 293 294 305 309 307 311 312 301 288 279 270 262 257 255 253 253 259 265 265 265 264 254 243 237 232 236 249 255 251 249 250 253 257 256 250 246
118 113 114 115 110 110 116 120 124 124 120 122 126 136 140 140 155 138 58 54 75 78 78 79 72 73 79 83 93 103 113 130 139 125 111 112 100 60 21 355 322 298 286 281 279 280 283 284 284 282 277 278 282 284 290 297 296 293 290 280 272 266 263 263 263 266 271 270 268 266 257 251 252 243 239 245 248 245 242 237 240 249 252 246 242
114 114 113 113 112 116 120 123 124 118 113 118 128 137 142 142 140 115 67 56 68 67 72 81 82 80 73 72 88 100 98 110 117 108 110 114 90 44 2 331 317 309 300 291 286 280 277 275 274 275 274 274 276 277 278 281 282 282 283 282 277 271 267 268 267 264 264 263 260 255 247 252 258 256 258 260 248 241 242 240 238 244 246 242 238
112 110 105 103 106 112 118 122 117 107 103 109 114 123 135 135 124 107 85 74 80 77 81 84 82 95 95 85 89 97 84 84 92 80 1 340 344 350 349 336 321 309 302 298 298 294 285 274 267 267 268 270 272 273 274 274 275 275 278 280 279 272 265 263 264 261 257 256 255 248 244 254 258 256 263 266 251 241 245 243 237 238 242 239 232
112 109 107 104 103 105 110 113 110 101 94 91 91 103 116 116 110 98 80 86 108 98 82 83 96 116 112 89 80 78 50 43 44 340 318 322 326 334 338 326 318 317 314 304 294 289 282 276 273 273 272 271 269 270 274 276 276 276 276 275 273 268 263 259 257 257 257 258 259 253 246 252 257 254 255 257 251 245 245 242 233 229 232 233 228
113 112 113 112 107 104 103 102 99 96 89 81 75 82 94 98 96 81 59 65 93 87 63 72 103 128 125 110 103 96 30 10 344 319 318 324 326 331 328 316 314 319 315 302 290 283 276 271 272 275 276 276 273 272 275 276 275 274 272 271 270 266 264 262 258 258 261 260 257 252 245 244 247 249 253 260 261 251 241 236 230 223 221 222 221
111 112 117 117 111 106 104 100 95 90 85 80 73 73 77 80 88 84 69 74 84 74 57 63 81 108 112 107 108 104 59 30 15 348 341 345 341 337 333 328 323 312 298 293 294 294 289 283 279 279 280 281 280 280 280 278 276 273 269 268 266 260 259 260 259 258 260 259 258 254 245 242 246 249 249 252 258 250 236 231 227 221 217 214 213